Tracking 22124 objects as of 24-Jan-2021
HD Live streaming from Space Station
objects crossing your sky now

COSMOS 1989 (ETALON 1)

Track COSMOS 1989 (ETALON 1) now!
COSMOS 1989 (ETALON 1) is classified as:


NORAD ID: 19751
Int'l Code: 1989-001C
Perigee: 19,074.0 km
Apogee: 19,191.4 km
Inclination: 64.2 °
Period: 675.6 minutes
Semi major axis: 25503 km
RCS: 1.0844 m2 (large)
Launch date: January 10, 1989
Source: Commonwealth of Independent States (former USSR) (CIS)
Launch site: TYURATAM MISSILE AND SPACE COMPLEX (TTMTR)
aabbcc
Your satellite tracking list
Your tracking list is empty




NASA's NSSDC Master Catalog

Two Line Element Set (TLE):
1 19751U 89001C   21023.75958330 -.00000006  00000-0  00000-0 0  9996
2 19751  64.2109 139.9068 0023019 211.4588  83.8526  2.13156292249364
Source of the keplerian elements: AFSPC